YAOGAN 9C

导读

YAOGAN 9C(遥感九号C星)是中国研制发射的遥感卫星,属于遥感九号卫星星座组网卫星,于北京时间2010年3月5日在酒泉卫星发射中心由长征四号丙运载火箭发射升空,纳入中国遥感系列卫星体系。 该卫星运行于近地点约701公里、远地点约1475公里的低地球轨道,主要服务于科学试验、国土资源普查、农作物估产、防灾减灾等领域,为国民经济建设提供对地观测数据支撑,目前卫星仍保持在轨运行状态。

基本信息
目录编号:
36415
目录名称:
YAOGAN 9C
国际标识:
2010-009C
轨道中心:
EARTH
卫星名称:
YAOGAN 9C
卫星全名:
--
卫星状态:
在轨 (已飞行6034 天)
发射日期:
2010-03-05 UTC
国别 :
中国 (CN)
星等 :
--
该卫星已列入 空间交会检测服务 Space Conjunction Data Service (SCDS) ,当前飞行风险评估等级: 无高风险
轨道信息
数据来源 国际轨道数据 AOE轨道数据
星历时间 2026-09-11T02:47:03+0800
17小时前
查看轨道信息
2026-09-10T22:00:00+0800
22小时前
查看轨道信息
半长轴 7466.166km 7466.17km
偏心率 0.0546354 0.054648
轨道倾角 63.364° 63.364°
近地点辐角 21.913° 21.939°
升交点赤经 136.837° 137.353°
平近点角 340.431° 94.681°
近地点 680.112km 680.021km
远地点 1495.946km 1496.045km
周期 107.006分钟 107.006分钟
每日圈数 13.457251 13.45724
详细信息
使用方式:
暂无
2D轨道图
3D轨道图
轨道高度分析图
轨道倾角分析图
轨道综合分析图
查看轨道综合分析图
交会数据列表
事件ID 空间交会对象 最接近时刻(TCA) 交会距离 交会风险概率(CRP) 交会风险指数(CRI) 操作
CDM_260911-103903-527503-641526
2026-09-11T
10:39:15+0000
2.846 km
极远距离
1.420131E-6 低风险 0.38
CDM_260912-101003-641503-748624
2026-09-12T
10:10:03+0000
2.969 km
极远距离
1.307736E-6 低风险 0.37
与全量物体交会距离演化趋势
与全量物体交会风险概率演化趋势